N7NKE Weather Reports


time (UTC)temp
C
wind
direction
speed
KPH
gust
KPH
rain 1hr
cm
rain 24hr
cm
rain mn
cm
humidity
%
barometer
mb
20260507140505 10 350 3.2 4.8 0.00 0.00 0.00 77 1020.7
20260507140006 10 336 3.2 4.8 0.00 0.00 0.00 78 1020.8
20260507135505 10 354 1.6 3.2 0.00 0.00 0.00 78 1020.7
20260507135006 10 335 1.6 8.0 0.00 0.00 0.00 77 1020.7
20260507134505 10 335 4.8 8.0 0.00 0.00 0.00 77 1020.6
20260507134005 10 329 3.2 9.7 0.00 0.00 0.00 77 1020.6
20260507133505 10 342 4.8 8.0 0.00 0.00 0.00 77 1020.6
20260507133005 10 332 4.8 8.0 0.00 0.00 0.00 77 1020.5
20260507132505 10 345 4.8 9.7 0.00 0.00 0.00 77 1020.6
20260507132005 10 327 4.8 8.0 0.00 0.00 0.00 77 1020.6
20260507131505 10 350 3.2 9.7 0.00 0.00 0.00 77 1020.5
20260507130505 10 339 3.2 8.0 0.00 0.00 0.00 77 1020.5
20260507125504 10 341 4.8 8.0 0.00 0.00 0.00 77 1020.4
20260507125005 10 335 3.2 4.8 0.00 0.00 0.00 77 1020.4
20260507124005 10 332 3.2 4.8 0.00 0.00 0.00 77 1020.4
20260507123505 10 329 1.6 3.2 0.00 0.00 0.00 77 1020.4
20260507123006 10 331 1.6 3.2 0.00 0.00 0.00 77 1020.5
20260507122505 10 328 1.6 3.2 0.00 0.00 0.00 76 1020.4
20260507122005 10 319 1.6 4.8 0.00 0.00 0.00 76 1020.5
20260507121005 10 333 1.6 4.8 0.00 0.00 0.00 76 1020.6
20260507120505 10 337 3.2 4.8 0.00 0.00 0.00 76 1020.7
20260507120005 11 330 1.6 4.8 0.00 0.00 0.00 76 1020.7
20260507115005 11 322 1.6 4.8 0.00 0.00 0.00 76 1020.7
20260507114505 11 338 1.6 4.8 0.00 0.00 0.00 76 1020.8
20260507113505 11 328 1.6 4.8 0.00 0.00 0.00 76 1020.8
20260507112505 11 316 3.2 4.8 0.00 0.00 0.00 76 1020.9
20260507111507 11 332 1.6 4.8 0.00 0.00 0.00 76 1020.9
20260507111005 11 329 1.6 8.0 0.00 0.00 0.00 76 1020.9
20260507110505 11 327 3.2 4.8 0.00 0.00 0.00 75 1020.9
20260507110005 11 336 3.2 8.0 0.00 0.00 0.00 76 1020.9
20260507105005 11 331 3.2 8.0 0.00 0.00 0.00 76 1020.9
20260507104506 11 329 3.2 8.0 0.00 0.00 0.00 76 1021.0
20260507103005 11 331 3.2 8.0 0.00 0.00 0.00 76 1021.1
20260507102505 11 330 3.2 8.0 0.00 0.00 0.00 76 1021.2
20260507102007 11 338 4.8 4.8 0.00 0.00 0.00 75 1021.3
20260507101507 11 6 4.8 12.9 0.00 0.00 0.00 76 1021.2
20260507101004 11 352 4.8 8.0 0.00 0.00 0.00 76 1021.2
20260507100504 11 336 3.2 4.8 0.00 0.00 0.00 76 1021.3
20260507100005 11 336 3.2 11.3 0.00 0.00 0.00 76 1021.2
20260507095505 11 348 3.2 8.0 0.00 0.00 0.00 76 1021.3
20260507095005 11 351 3.2 4.8 0.00 0.00 0.00 76 1021.3
20260507094505 11 338 3.2 8.0 0.00 0.00 0.00 75 1021.3
20260507094005 11 327 4.8 8.0 0.00 0.00 0.00 76 1021.3
20260507093505 11 358 3.2 8.0 0.00 0.00 0.00 76 1021.3
20260507093006 11 339 3.2 9.7 0.00 0.00 0.00 76 1021.3
20260507092505 11 337 1.6 4.8 0.00 0.00 0.00 76 1021.4
20260507092005 11 356 3.2 4.8 0.00 0.00 0.00 76 1021.4
20260507091005 11 340 1.6 3.2 0.00 0.00 0.00 76 1021.5
20260507090505 11 302 1.6 3.2 0.00 0.00 0.00 75 1021.6
20260507090006 11 345 1.6 3.2 0.00 0.00 0.00 76 1021.6
20260507085005 11 319 3.2 8.0 0.00 0.00 0.00 75 1021.6
20260507084005 11 326 3.2 3.2 0.00 0.00 0.00 75 1021.6
20260507083505 11 328 1.6 8.0 0.00 0.00 0.00 75 1021.5
20260507083006 11 330 4.8 8.0 0.00 0.00 0.00 75 1021.5
20260507082505 11 334 3.2 4.8 0.00 0.00 0.00 76 1021.6
20260507081504 11 331 4.8 8.0 0.00 0.00 0.00 76 1021.6
20260507081005 11 329 3.2 8.0 0.00 0.00 0.00 76 1021.6
20260507080504 11 347 3.2 4.8 0.00 0.00 0.00 76 1021.5
20260507080005 11 330 3.2 4.8 0.00 0.00 0.00 76 1021.5
20260507075505 12 357 3.2 4.8 0.00 0.00 0.00 76 1021.6
20260507075004 12 329 3.2 3.2 0.00 0.00 0.00 77 1021.5
20260507074504 12 343 3.2 8.0 0.00 0.00 0.00 77 1021.5
20260507074005 12 330 4.8 8.0 0.00 0.00 0.00 77 1021.5
20260507073505 12 334 4.8 9.7 0.00 0.00 0.00 77 1021.5
20260507073005 12 332 3.2 9.7 0.00 0.00 0.00 78 1021.5
20260507072504 12 332 3.2 4.8 0.00 0.00 0.00 78 1021.5
20260507072006 12 342 1.6 3.2 0.00 0.00 0.00 78 1021.5
20260507071505 12 310 3.2 4.8 0.00 0.00 0.00 79 1021.4
20260507071005 11 301 1.6 8.0 0.00 0.00 0.00 78 1021.4
20260507070010 12 333 6.4 8.0 0.00 0.00 0.00 79 1021.4
20260507065005 12 337 4.8 8.0 0.00 0.00 0.00 80 1021.3
20260507064505 12 344 3.2 8.0 0.00 0.00 0.00 80 1021.3
20260507064005 12 328 4.8 8.0 0.00 0.00 0.00 80 1021.3
20260507063505 12 349 4.8 8.0 0.00 0.00 0.00 80 1021.3
20260507063005 12 334 4.8 9.7 0.00 0.00 0.00 80 1021.4
20260507062005 12 330 4.8 9.7 0.00 0.00 0.00 80 1021.4
20260507061505 12 331 4.8 9.7 0.00 0.00 0.00 81 1021.5
20260507061005 12 331 4.8 9.7 0.00 0.00 0.00 81 1021.5
20260507060505 12 339 4.8 9.7 0.00 0.00 0.00 81 1021.4
20260507060005 12 332 4.8 11.3 0.00 0.00 0.00 81 1021.5
20260507055504 12 333 4.8 11.3 0.00 0.00 0.00 81 1021.4
20260507054505 12 332 6.4 11.3 0.00 0.00 0.00 81 1021.3
20260507054004 12 340 8.0 11.3 0.00 0.00 0.00 81 1021.3
20260507053505 12 333 8.0 12.9 0.00 0.00 0.00 81 1021.3
20260507053005 12 329 6.4 11.3 0.00 0.00 0.00 81 1021.2
20260507052505 12 335 4.8 11.3 0.00 0.00 0.00 81 1021.2
20260507052005 12 348 6.4 12.9 0.00 0.00 0.00 81 1021.2
20260507051505 12 344 4.8 9.7 0.00 0.00 0.00 81 1021.2
20260507051005 12 7 8.0 11.3 0.00 0.00 0.00 81 1021.2
20260507050005 12 352 4.8 8.0 0.00 0.00 0.00 80 1021.2
20260507045504 12 351 4.8 8.0 0.00 0.00 0.00 79 1021.2
20260507044505 13 342 3.2 9.7 0.00 0.00 0.00 78 1021.2
20260507044005 13 345 4.8 8.0 0.00 0.00 0.00 78 1021.2
20260507043504 13 349 6.4 11.3 0.00 0.00 0.00 78 1021.2
20260507042505 13 347 3.2 4.8 0.00 0.00 0.00 77 1021.2
20260507042004 13 339 4.8 9.7 0.00 0.00 0.00 76 1021.2
20260507041505 13 346 4.8 9.7 0.00 0.00 0.00 76 1021.2
20260507041004 13 3 4.8 12.9 0.00 0.00 0.00 76 1021.2
20260507040005 13 327 8.0 12.9 0.00 0.00 0.00 76 1021.0
20260507035504 13 356 4.8 11.3 0.00 0.00 0.00 76 1021.0
20260507035004 13 343 4.8 9.7 0.00 0.00 0.00 76 1020.9
20260507034505 14 336 6.4 14.5 0.00 0.00 0.00 75 1020.8
20260507034004 14 342 8.0 14.5 0.00 0.00 0.00 75 1020.8
20260507033505 14 350 8.0 16.1 0.00 0.00 0.00 75 1020.8
20260507033006 14 344 9.7 14.5 0.00 0.00 0.00 74 1020.7
20260507032505 14 349 9.7 16.1 0.00 0.00 0.00 74 1020.6
20260507032004 14 341 8.0 16.1 0.00 0.00 0.00 74 1020.5
20260507031505 15 340 8.0 19.3 0.00 0.00 0.00 73 1020.5
20260507031005 15 346 11.3 20.9 0.00 0.00 0.00 73 1020.4
20260507030504 15 348 9.7 19.3 0.00 0.00 0.00 72 1020.4
20260507030005 15 332 9.7 16.1 0.00 0.00 0.00 72 1020.3
20260507025505 15 334 9.7 20.9 0.00 0.00 0.00 72 1020.3
20260507025004 15 332 9.7 20.9 0.00 0.00 0.00 72 1020.2
20260507024505 15 341 9.7 19.3 0.00 0.00 0.00 72 1020.2
20260507024005 16 329 8.0 16.1 0.00 0.00 0.00 72 1020.1
20260507023504 16 351 8.0 16.1 0.00 0.00 0.00 72 1020.1
20260507023006 16 354 8.0 14.5 0.00 0.00 0.00 72 1020.0
20260507022505 16 345 8.0 14.5 0.00 0.00 0.00 70 1020.0
20260507022004 16 344 8.0 14.5 0.00 0.00 0.00 71 1020.0
20260507021504 17 350 4.8 11.3 0.00 0.00 0.00 71 1020.0
20260507021004 17 338 4.8 11.3 0.00 0.00 0.00 70 1019.9
20260507020505 17 338 4.8 16.1 0.00 0.00 0.00 69 1019.9
20260507020005 17 339 8.0 12.9 0.00 0.00 0.00 69 1019.9
20260507015505 17 333 8.0 12.9 0.00 0.00 0.00 68 1020.0
20260507015005 17 340 9.7 14.5 0.00 0.00 0.00 68 1020.0
20260507014505 17 350 6.4 12.9 0.00 0.00 0.00 68 1020.0
20260507014005 18 348 8.0 19.3 0.00 0.00 0.00 67 1020.1
20260507013505 18 329 8.0 14.5 0.00 0.00 0.00 67 1020.0
20260507013005 18 358 6.4 12.9 0.00 0.00 0.00 67 1020.0
20260507012504 18 330 4.8 9.7 0.00 0.00 0.00 68 1019.9
20260507012004 18 341 8.0 12.9 0.00 0.00 0.00 68 1020.0
20260507011505 18 335 4.8 11.3 0.00 0.00 0.00 69 1020.0
20260507011004 18 336 6.4 11.3 0.00 0.00 0.00 69 1020.1
20260507010005 18 337 8.0 12.9 0.00 0.00 0.00 69 1020.1
20260507005505 18 351 6.4 14.5 0.00 0.00 0.00 69 1020.1
20260507004505 18 333 4.8 9.7 0.00 0.00 0.00 70 1020.0
20260507004004 18 343 4.8 8.0 0.00 0.00 0.00 70 1020.0
20260507003505 18 327 4.8 9.7 0.00 0.00 0.00 70 1020.0
20260507002504 19 358 4.8 12.9 0.00 0.00 0.00 68 1019.9
20260507002005 19 6 4.8 9.7 0.00 0.00 0.00 69 1019.9
20260507001505 19 356 4.8 11.3 0.00 0.00 0.00 68 1019.9
20260507001005 19 335 4.8 9.7 0.00 0.00 0.00 67 1019.8
20260507000505 18 332 4.8 9.7 0.00 0.00 0.00 67 1019.8
20260507000005 18 352 4.8 9.7 0.00 0.00 0.00 68 1019.9
20260506235504 18 333 4.8 8.0 0.00 0.00 0.00 67 1019.9
20260506235004 19 344 4.8 16.1 0.00 0.00 0.00 68 1019.9
20260506234505 19 349 4.8 11.3 0.00 0.00 0.00 68 1019.9
20260506234004 19 325 4.8 8.0 0.00 0.00 0.00 69 1019.9
20260506233504 19 319 4.8 9.7 0.00 0.00 0.00 68 1019.9
20260506233004 19 327 4.8 8.0 0.00 0.00 0.00 67 1019.8
20260506232005 19 347 4.8 9.7 0.00 0.00 0.00 68 1019.8
20260506231505 19 323 4.8 9.7 0.00 0.00 0.00 68 1019.8
20260506230504 20 323 3.2 4.8 0.00 0.00 0.00 69 1019.9
20260506230004 20 329 4.8 9.7 0.00 0.00 0.00 69 1019.9
20260506225504 20 347 3.2 4.8 0.00 0.00 0.00 69 1019.9
20260506225004 20 12 3.2 8.0 0.00 0.00 0.00 69 1019.9
20260506224504 20 356 1.6 3.2 0.00 0.00 0.00 69 1019.9
20260506224005 20 333 1.6 3.2 0.00 0.00 0.00 67 1020.0
20260506223504 20 333 1.6 4.8 0.00 0.00 0.00 67 1020.0
20260506223004 20 26 1.6 4.8 0.00 0.00 0.00 68 1020.0
20260506222504 20 59 3.2 4.8 0.00 0.00 0.00 69 1020.0
20260506222004 20 323 3.2 3.2 0.00 0.00 0.00 68 1020.0
20260506221506 20 332 1.6 4.8 0.00 0.00 0.00 69 1020.1
20260506220504 20 17 1.6 3.2 0.00 0.00 0.00 70 1020.0
20260506220005 20 339 3.2 4.8 0.00 0.00 0.00 70 1020.0
20260506215504 20 326 3.2 8.0 0.00 0.00 0.00 71 1019.9
20260506215006 20 6 3.2 8.0 0.00 0.00 0.00 70 1019.9
20260506214505 19 79 3.2 9.7 0.00 0.00 0.00 72 1019.9
20260506214005 19 13 1.6 4.8 0.00 0.00 0.00 72 1020.0
20260506213006 19 7 3.2 4.8 0.00 0.00 0.00 70 1020.1
20260506212505 20 336 3.2 4.8 0.00 0.00 0.00 70 1020.0
20260506212004 20 75 3.2 4.8 0.00 0.00 0.00 68 1020.1
20260506211505 20 353 1.6 8.0 0.00 0.00 0.00 69 1020.0
20260506211005 20 26 1.6 4.8 0.00 0.00 0.00 70 1020.0
20260506210504 20 143 3.2 12.9 0.00 0.00 0.00 70 1020.0
20260506205504 19 49 1.6 3.2 0.00 0.00 0.00 71 1020.2
20260506204505 19 54 3.2 8.0 0.00 0.00 0.00 71 1020.2
20260506204004 19 51 3.2 3.2 0.00 0.00 0.00 72 1020.2
20260506203505 18 51 4.8 11.3 0.00 0.00 0.00 71 1020.2
20260506202504 18 74 3.2 4.8 0.00 0.00 0.00 71 1020.3
20260506202005 18 248 1.6 8.0 0.00 0.00 0.00 68 1020.3
20260506201505 18 192 3.2 12.9 0.00 0.00 0.00 69 1020.2
20260506201004 18 90 1.6 8.0 0.00 0.00 0.00 70 1020.2
20260506200504 18 139 4.8 9.7 0.00 0.00 0.00 70 1020.3
20260506200004 18 308 3.2 11.3 0.00 0.00 0.00 70 1020.2
20260506195005 18 161 4.8 8.0 0.00 0.00 0.00 71 1020.4
20260506194004 18 80 3.2 8.0 0.00 0.00 0.00 72 1020.5
20260506193505 18 154 4.8 8.0 0.00 0.00 0.00 72 1020.5
20260506193004 18 205 1.6 4.8 0.00 0.00 0.00 73 1020.5
20260506192504 18 90 4.8 9.7 0.00 0.00 0.00 72 1020.5
20260506192004 18 94 4.8 8.0 0.00 0.00 0.00 74 1020.5
20260506191504 17 116 3.2 4.8 0.00 0.00 0.00 73 1020.5
20260506191004 17 161 1.6 3.2 0.00 0.00 0.00 72 1020.6
20260506190504 18 21 1.6 11.3 0.00 0.00 0.00 74 1020.5
20260506190005 18 169 9.7 14.5 0.00 0.00 0.00 72 1020.6
20260506185505 18 287 3.2 12.9 0.00 0.00 0.00 71 1020.6
20260506185004 18 120 8.0 16.1 0.00 0.00 0.00 72 1020.6
20260506184505 18 126 9.7 16.1 0.00 0.00 0.00 72 1020.5
20260506184005 17 109 4.8 19.3 0.00 0.00 0.00 74 1020.5
20260506183504 17 165 8.0 12.9 0.00 0.00 0.00 73 1020.6
20260506183006 17 147 9.7 14.5 0.00 0.00 0.00 75 1020.6
20260506182504 17 0 4.8 16.1 0.00 0.00 0.00 74 1020.6
20260506182004 17 203 4.8 14.5 0.00 0.00 0.00 74 1020.6
20260506181004 17 109 8.0 14.5 0.00 0.00 0.00 72 1020.5
20260506180504 17 120 8.0 14.5 0.00 0.00 0.00 74 1020.4
20260506180005 17 192 9.7 19.3 0.00 0.00 0.00 74 1020.4
20260506175504 17 164 8.0 14.5 0.00 0.00 0.00 77 1020.4
20260506175004 16 165 9.7 16.1 0.00 0.00 0.00 77 1020.5
20260506174004 16 212 3.2 9.7 0.00 0.00 0.00 78 1020.6
20260506173504 16 175 9.7 14.5 0.00 0.00 0.00 79 1020.6
20260506173004 16 177 6.4 12.9 0.00 0.00 0.00 79 1020.7
20260506172004 15 136 9.7 12.9 0.00 0.00 0.00 79 1020.5
20260506171505 15 139 1.6 4.8 0.00 0.00 0.00 79 1020.5
20260506171004 15 206 3.2 9.7 0.00 0.00 0.00 80 1020.5
20260506170504 15 336 6.4 9.7 0.00 0.00 0.00 80 1020.6
20260506170005 15 0 4.8 9.7 0.00 0.00 0.00 80 1020.6
20260506165504 15 187 3.2 9.7 0.00 0.00 0.00 81 1020.5
20260506164504 15 166 1.6 4.8 0.00 0.00 0.00 81 1020.5
20260506163004 14 110 3.2 11.3 0.00 0.00 0.00 82 1020.4
20260506161504 14 96 1.6 3.2 0.00 0.00 0.00 83 1020.7
20260506161005 14 97 0.0 3.2 0.00 0.00 0.00 83 1020.6
20260506160005 13 0 1.6 3.2 0.00 0.00 0.00 82 1020.5
20260506155004 13 0 0.0 4.8 0.00 0.00 0.00 83 1020.4
20260506153504 13 0 0.0 3.2 0.00 0.00 0.00 84 1020.2
20260506152504 13 83 3.2 3.2 0.00 0.00 0.00 84 1019.9
20260506152004 13 24 0.0 3.2 0.00 0.00 0.00 84 1019.9
20260506151505 13 56 0.0 3.2 0.00 0.00 0.00 85 1019.9
20260506151006 13 320 1.6 3.2 0.00 0.00 0.00 85 1020.1
20260506150005 13 83 3.2 4.8 0.00 0.00 0.00 86 1019.9
20260506145507 13 350 0.0 3.2 0.00 0.00 0.00 86 1020.3
20260506144505 13 352 0.0 3.2 0.00 0.00 0.00 87 1020.4
20260506142505 12 345 3.2 4.8 0.00 0.00 0.00 87 1020.4
20260506142005 12 349 3.2 4.8 0.00 0.00 0.00 87 1020.3
20260506141505 12 334 3.2 4.8 0.00 0.00 0.00 87 1020.2
20260506141005 12 8 3.2 4.8 0.00 0.00 0.00 87 1020.1